Time,TemperatureF,DewpointF,PressureIn,WindDirection,WindDirectionDegrees,WindSpeedMPH,WindSpeedGustMPH,Humidity,HourlyPrecipIn,Conditions,Clouds,dailyrainin,SoftwareType,DateUTC
2013-02-06 00:01:00,32.0,29.0,30.09,WNW,296,3.0,6.0,88,0.00,,,0.00,,2013-02-06 06:01:00,
2013-02-06 00:11:00,32.0,29.0,30.09,WNW,296,3.0,6.0,88,0.00,,,0.00,,2013-02-06 06:11:00,
2013-02-06 00:21:00,32.0,29.0,30.10,WNW,292,2.0,6.0,87,0.00,,,0.00,,2013-02-06 06:21:00,
2013-02-06 00:32:00,32.0,29.0,30.10,WNW,292,2.0,6.0,87,0.00,,,0.00,,2013-02-06 06:32:00,
2013-02-06 00:42:00,32.0,29.0,30.10,WNW,292,2.0,6.0,87,0.00,,,0.00,,2013-02-06 06:42:00,
2013-02-06 00:51:00,31.0,27.0,30.11,WNW,293,3.0,6.0,86,0.00,,,0.00,,2013-02-06 06:51:00,
2013-02-06 01:01:00,31.0,28.0,30.11,WNW,300,1.0,5.0,87,0.00,,,0.00,,2013-02-06 07:01:00,
2013-02-06 01:11:00,31.0,28.0,30.11,WNW,300,1.0,5.0,87,0.00,,,0.00,,2013-02-06 07:11:00,
2013-02-06 01:21:00,31.0,27.0,30.12,NW,304,3.0,5.0,86,0.00,,,0.00,,2013-02-06 07:21:00,
2013-02-06 01:32:00,31.0,27.0,30.12,WNW,287,3.0,6.0,84,0.00,,,0.00,,2013-02-06 07:32:00,
2013-02-06 01:42:00,31.0,27.0,30.12,WNW,287,3.0,6.0,84,0.00,,,0.00,,2013-02-06 07:42:00,
2013-02-06 01:51:00,31.0,27.0,30.12,WNW,298,2.0,4.0,84,0.00,,,0.00,,2013-02-06 07:51:00,
2013-02-06 02:01:00,31.0,27.0,30.12,WNW,297,1.0,4.0,84,0.00,,,0.00,,2013-02-06 08:01:00,
2013-02-06 02:11:00,31.0,27.0,30.12,WNW,297,1.0,4.0,84,0.00,,,0.00,,2013-02-06 08:11:00,
2013-02-06 02:21:00,31.0,26.0,30.12,WNW,293,2.0,5.0,83,0.00,,,0.00,,2013-02-06 08:21:00,
2013-02-06 02:31:00,31.0,27.0,30.13,WNW,293,0.0,2.0,84,0.00,,,0.00,,2013-02-06 08:31:00,
2013-02-06 02:42:00,31.0,27.0,30.13,WNW,293,0.0,2.0,84,0.00,,,0.00,,2013-02-06 08:42:00,
2013-02-06 02:53:00,31.0,27.0,30.13,WNW,293,2.0,3.0,85,0.00,,,0.00,,2013-02-06 08:53:00,
2013-02-06 03:01:00,31.0,26.0,30.14,NW,306,2.0,5.0,81,0.00,,,0.00,,2013-02-06 09:01:00,
2013-02-06 03:11:00,31.0,26.0,30.14,NW,306,2.0,5.0,81,0.00,,,0.00,,2013-02-06 09:11:00,
2013-02-06 03:21:00,31.0,26.0,30.14,NW,306,2.0,3.0,83,0.00,,,0.00,,2013-02-06 09:21:00,
2013-02-06 03:31:00,31.0,26.0,30.14,WNW,303,0.0,4.0,81,0.00,,,0.00,,2013-02-06 09:31:00,
2013-02-06 03:41:00,31.0,26.0,30.14,WNW,303,0.0,4.0,81,0.00,,,0.00,,2013-02-06 09:41:00,
2013-02-06 03:51:00,30.0,26.0,30.15,WNW,303,0.0,2.0,86,0.00,,,0.00,,2013-02-06 09:51:00,
2013-02-06 04:01:00,30.0,26.0,30.15,WNW,303,0.0,2.0,86,0.00,,,0.00,,2013-02-06 10:01:00,
2013-02-06 04:11:00,30.0,26.0,30.15,WNW,303,0.0,2.0,86,0.00,,,0.00,,2013-02-06 10:11:00,
2013-02-06 04:21:00,30.0,26.0,30.16,WNW,303,0.0,3.0,85,0.00,,,0.00,,2013-02-06 10:21:00,
2013-02-06 04:31:00,30.0,27.0,30.15,WNW,303,0.0,1.0,87,0.00,,,0.00,,2013-02-06 10:31:00,
2013-02-06 04:42:00,30.0,27.0,30.15,WNW,303,0.0,1.0,87,0.00,,,0.00,,2013-02-06 10:42:00,
2013-02-06 04:51:00,29.0,25.0,30.16,WNW,303,0.0,1.0,86,0.00,,,0.00,,2013-02-06 10:51:00,
2013-02-06 05:01:00,28.0,24.0,30.16,WNW,303,0.0,1.0,86,0.00,,,0.00,,2013-02-06 11:01:00,
2013-02-06 05:11:00,28.0,24.0,30.16,WNW,303,0.0,1.0,86,0.00,,,0.00,,2013-02-06 11:11:00,
2013-02-06 05:22:00,27.0,24.0,30.17,WNW,303,0.0,1.0,87,0.00,,,0.00,,2013-02-06 11:22:00,
2013-02-06 05:32:00,26.0,23.0,30.17,WNW,303,0.0,1.0,87,0.00,,,0.00,,2013-02-06 11:32:00,
2013-02-06 05:42:00,26.0,23.0,30.17,WNW,303,0.0,1.0,87,0.00,,,0.00,,2013-02-06 11:42:00,
2013-02-06 05:52:00,26.0,23.0,30.17,NNW,339,2.0,4.0,88,0.00,,,0.00,,2013-02-06 11:52:00,
2013-02-06 06:02:00,26.0,23.0,30.17,NE,52,2.0,3.0,89,0.00,,,0.00,,2013-02-06 12:02:00,
2013-02-06 06:12:00,26.0,23.0,30.17,NE,52,2.0,3.0,89,0.00,,,0.00,,2013-02-06 12:12:00,
2013-02-06 06:22:00,25.0,22.0,30.18,NE,52,1.0,2.0,88,0.00,,,0.00,,2013-02-06 12:22:00,
2013-02-06 06:32:00,24.0,22.0,30.18,NE,52,2.0,3.0,90,0.00,,,0.00,,2013-02-06 12:32:00,
2013-02-06 06:42:00,24.0,22.0,30.18,NE,52,2.0,3.0,90,0.00,,,0.00,,2013-02-06 12:42:00,
2013-02-06 06:52:00,24.0,22.0,30.18,NE,52,2.0,3.0,90,0.00,,,0.00,,2013-02-06 12:52:00,
2013-02-06 07:01:00,23.0,21.0,30.19,NE,52,2.0,4.0,91,0.00,,,0.00,,2013-02-06 13:01:00,
2013-02-06 07:12:00,23.0,21.0,30.19,NE,52,2.0,4.0,91,0.00,,,0.00,,2013-02-06 13:12:00,
2013-02-06 07:22:00,23.0,21.0,30.19,NE,52,2.0,3.0,91,0.00,,,0.00,,2013-02-06 13:22:00,
2013-02-06 07:32:00,23.0,21.0,30.19,NE,53,2.0,5.0,91,0.00,,,0.00,,2013-02-06 13:32:00,
2013-02-06 07:42:00,23.0,21.0,30.19,NE,53,2.0,5.0,91,0.00,,,0.00,,2013-02-06 13:42:00,
2013-02-06 07:52:00,23.0,21.0,30.19,ENE,62,2.0,4.0,91,0.00,,,0.00,,2013-02-06 13:52:00,
2013-02-06 08:02:00,23.0,21.0,30.19,ENE,62,2.0,4.0,91,0.00,,,0.00,,2013-02-06 14:02:00,
2013-02-06 08:11:00,23.0,21.0,30.19,ENE,62,2.0,4.0,91,0.00,,,0.00,,2013-02-06 14:11:00,
2013-02-06 08:22:00,25.0,23.0,30.20,ENE,65,2.0,3.0,92,0.00,,,0.00,,2013-02-06 14:22:00,
2013-02-06 08:32:00,27.0,25.0,30.21,ENE,65,1.0,3.0,92,0.00,,,0.00,,2013-02-06 14:32:00,
2013-02-06 08:42:00,27.0,25.0,30.21,ENE,65,1.0,3.0,92,0.00,,,0.00,,2013-02-06 14:42:00,
2013-02-06 08:52:00,29.0,26.0,30.21,ENE,65,2.0,3.0,88,0.00,,,0.00,,2013-02-06 14:52:00,
2013-02-06 09:01:00,29.0,26.0,30.21,East,96,4.0,7.0,87,0.00,,,0.00,,2013-02-06 15:01:00,
2013-02-06 09:11:00,29.0,26.0,30.21,East,96,4.0,7.0,87,0.00,,,0.00,,2013-02-06 15:11:00,
2013-02-06 09:21:00,31.0,28.0,30.22,East,98,4.0,6.0,87,0.00,,,0.00,,2013-02-06 15:21:00,
2013-02-06 09:31:00,32.0,28.0,30.22,SE,138,3.0,5.0,85,0.00,,,0.00,,2013-02-06 15:31:00,
2013-02-06 09:42:00,32.0,28.0,30.22,SE,138,3.0,5.0,85,0.00,,,0.00,,2013-02-06 15:42:00,
2013-02-06 09:52:00,32.0,28.0,30.22,SE,144,3.0,7.0,85,0.00,,,0.00,,2013-02-06 15:52:00,
2013-02-06 10:01:00,34.0,29.0,30.22,South,178,5.0,8.0,82,0.00,,,0.00,,2013-02-06 16:01:00,
2013-02-06 10:11:00,34.0,29.0,30.22,South,178,5.0,8.0,82,0.00,,,0.00,,2013-02-06 16:11:00,
2013-02-06 10:21:00,34.0,28.0,30.22,SW,232,5.0,8.0,80,0.00,,,0.00,,2013-02-06 16:21:00,
2013-02-06 10:32:00,35.0,29.0,30.22,SSE,167,4.0,8.0,80,0.00,,,0.00,,2013-02-06 16:32:00,
2013-02-06 10:42:00,35.0,29.0,30.22,SSE,167,4.0,8.0,80,0.00,,,0.00,,2013-02-06 16:42:00,
2013-02-06 10:51:00,35.0,29.0,30.22,SSE,167,4.0,8.0,80,0.00,,,0.00,,2013-02-06 16:51:00,
2013-02-06 11:02:00,36.0,31.0,30.20,SSE,163,6.0,12.0,83,0.00,,,0.00,,2013-02-06 17:02:00,
2013-02-06 11:11:00,36.0,31.0,30.20,SSE,163,6.0,12.0,83,0.00,,,0.00,,2013-02-06 17:11:00,
2013-02-06 11:21:00,36.0,31.0,30.22,South,174,7.0,11.0,82,0.00,,,0.00,,2013-02-06 17:21:00,
2013-02-06 11:32:00,37.0,32.0,30.22,SSW,205,4.0,12.0,81,0.00,,,0.00,,2013-02-06 17:32:00,
2013-02-06 11:41:00,37.0,32.0,30.22,SSW,205,4.0,12.0,81,0.00,,,0.00,,2013-02-06 17:41:00,
2013-02-06 11:52:00,37.0,31.0,30.21,SSW,193,5.0,10.0,80,0.00,,,0.00,,2013-02-06 17:52:00,
2013-02-06 12:01:00,38.0,33.0,30.21,SSW,203,7.0,10.0,81,0.00,,,0.00,,2013-02-06 18:01:00,
2013-02-06 12:11:00,38.0,33.0,30.21,SSW,203,7.0,10.0,81,0.00,,,0.00,,2013-02-06 18:11:00,
2013-02-06 12:23:00,39.0,34.0,30.21,SSW,213,4.0,12.0,81,0.00,,,0.00,,2013-02-06 18:23:00,
2013-02-06 12:32:00,39.0,33.0,30.20,SW,218,5.0,9.0,80,0.00,,,0.00,,2013-02-06 18:32:00,
2013-02-06 12:42:00,39.0,33.0,30.20,SW,218,5.0,9.0,80,0.00,,,0.00,,2013-02-06 18:42:00,
2013-02-06 12:52:00,40.0,33.0,30.20,South,186,3.0,9.0,77,0.00,,,0.00,,2013-02-06 18:52:00,
2013-02-06 13:01:00,40.0,32.0,30.20,SSW,213,6.0,9.0,73,0.00,,,0.00,,2013-02-06 19:01:00,
2013-02-06 13:11:00,40.0,32.0,30.20,SSW,213,6.0,9.0,73,0.00,,,0.00,,2013-02-06 19:11:00,
2013-02-06 13:21:00,40.0,32.0,30.19,SSW,198,5.0,9.0,74,0.00,,,0.00,,2013-02-06 19:21:00,
2013-02-06 13:32:00,41.0,34.0,30.18,SSW,198,5.0,7.0,75,0.00,,,0.00,,2013-02-06 19:32:00,
2013-02-06 13:41:00,41.0,34.0,30.18,SSW,198,5.0,7.0,75,0.00,,,0.00,,2013-02-06 19:41:00,
2013-02-06 13:52:00,41.0,34.0,30.17,South,177,4.0,9.0,75,0.00,,,0.00,,2013-02-06 19:52:00,
2013-02-06 14:01:00,42.0,33.0,30.18,SSW,205,4.0,9.0,71,0.00,,,0.00,,2013-02-06 20:01:00,
2013-02-06 14:11:00,42.0,33.0,30.18,SSW,205,4.0,9.0,71,0.00,,,0.00,,2013-02-06 20:11:00,
2013-02-06 14:21:00,42.0,33.0,30.18,South,175,5.0,9.0,71,0.00,,,0.00,,2013-02-06 20:21:00,
2013-02-06 14:32:00,42.0,33.0,30.17,SSW,194,5.0,9.0,70,0.00,,,0.00,,2013-02-06 20:32:00,
2013-02-06 14:41:00,42.0,33.0,30.17,SSW,194,5.0,9.0,70,0.00,,,0.00,,2013-02-06 20:41:00,
2013-02-06 14:52:00,42.0,34.0,30.15,SSW,203,5.0,10.0,74,0.00,,,0.00,,2013-02-06 20:52:00,
2013-02-06 15:02:00,42.0,34.0,30.16,South,172,4.0,8.0,74,0.00,,,0.00,,2013-02-06 21:02:00,
2013-02-06 15:11:00,42.0,34.0,30.16,South,172,4.0,8.0,74,0.00,,,0.00,,2013-02-06 21:11:00,
2013-02-06 15:21:00,42.0,34.0,30.16,South,172,4.0,8.0,74,0.00,,,0.00,,2013-02-06 21:21:00,
2013-02-06 15:32:00,42.0,34.0,30.16,SSW,203,6.0,9.0,74,0.00,,,0.00,,2013-02-06 21:32:00,
2013-02-06 15:41:00,42.0,34.0,30.16,SSW,203,6.0,9.0,74,0.00,,,0.00,,2013-02-06 21:41:00,
2013-02-06 15:52:00,42.0,34.0,30.16,SSW,196,5.0,10.0,72,0.00,,,0.00,,2013-02-06 21:52:00,
2013-02-06 16:01:00,42.0,34.0,30.16,SW,214,5.0,9.0,74,0.00,,,0.00,,2013-02-06 22:01:00,
2013-02-06 16:11:00,42.0,34.0,30.16,SW,214,5.0,9.0,74,0.00,,,0.00,,2013-02-06 22:11:00,
2013-02-06 16:21:00,41.0,34.0,30.15,SSW,212,3.0,7.0,77,0.00,,,0.00,,2013-02-06 22:21:00,
2013-02-06 16:31:00,40.0,34.0,30.14,South,180,2.0,5.0,80,0.00,,,0.00,,2013-02-06 22:31:00,
2013-02-06 16:42:00,40.0,34.0,30.14,South,180,2.0,5.0,80,0.00,,,0.00,,2013-02-06 22:42:00,
2013-02-06 16:51:00,40.0,35.0,30.14,South,180,2.0,3.0,81,0.00,,,0.00,,2013-02-06 22:51:00,
2013-02-06 17:01:00,39.0,35.0,30.14,SSE,156,2.0,5.0,85,0.00,,,0.00,,2013-02-06 23:01:00,
2013-02-06 17:11:00,39.0,35.0,30.14,SSE,156,2.0,5.0,85,0.00,,,0.00,,2013-02-06 23:11:00,
2013-02-06 17:21:00,38.0,34.0,30.13,SSE,166,3.0,5.0,85,0.00,,,0.00,,2013-02-06 23:21:00,
2013-02-06 17:32:00,37.0,34.0,30.13,SSE,148,2.0,6.0,87,0.00,,,0.00,,2013-02-06 23:32:00,
2013-02-06 17:42:00,37.0,34.0,30.13,SSE,148,2.0,6.0,87,0.00,,,0.00,,2013-02-06 23:42:00,
2013-02-06 17:52:00,36.0,33.0,30.12,SE,136,4.0,7.0,88,0.00,,,0.00,,2013-02-06 23:52:00,
2013-02-06 18:01:00,36.0,33.0,30.12,SE,142,4.0,7.0,88,0.00,,,0.00,,2013-02-07 00:01:00,
2013-02-06 18:11:00,36.0,33.0,30.12,SE,142,4.0,7.0,88,0.00,,,0.00,,2013-02-07 00:11:00,
2013-02-06 18:21:00,36.0,33.0,30.11,SE,132,5.0,8.0,89,0.00,,,0.00,,2013-02-07 00:21:00,
2013-02-06 18:31:00,36.0,33.0,30.11,SE,128,4.0,8.0,89,0.00,,,0.00,,2013-02-07 00:31:00,
2013-02-06 18:42:00,36.0,33.0,30.11,SE,128,4.0,8.0,89,0.00,,,0.00,,2013-02-07 00:42:00,
2013-02-06 18:51:00,36.0,33.0,30.11,SE,130,5.0,9.0,89,0.00,,,0.00,,2013-02-07 00:51:00,
2013-02-06 19:01:00,36.0,33.0,30.13,SSE,154,4.0,9.0,90,0.00,,,0.00,,2013-02-07 01:01:00,
2013-02-06 19:11:00,36.0,33.0,30.13,SSE,154,4.0,9.0,90,0.00,,,0.00,,2013-02-07 01:11:00,
2013-02-06 19:21:00,36.0,33.0,30.14,SSE,165,4.0,9.0,90,0.00,,,0.00,,2013-02-07 01:21:00,
2013-02-06 19:31:00,35.0,32.0,30.13,SSE,163,6.0,10.0,90,0.00,,,0.00,,2013-02-07 01:31:00,
2013-02-06 19:41:00,35.0,32.0,30.13,SSE,163,6.0,10.0,90,0.00,,,0.00,,2013-02-07 01:41:00,
2013-02-06 19:52:00,36.0,33.0,30.13,SSE,160,7.0,11.0,90,0.00,,,0.00,,2013-02-07 01:52:00,
2013-02-06 20:01:00,35.0,33.0,30.12,SSE,158,6.0,9.0,91,0.00,,,0.00,,2013-02-07 02:01:00,
2013-02-06 20:11:00,35.0,33.0,30.12,SSE,158,6.0,9.0,91,0.00,,,0.00,,2013-02-07 02:11:00,
2013-02-06 20:21:00,35.0,33.0,30.12,SSE,149,5.0,8.0,91,0.00,,,0.00,,2013-02-07 02:21:00,
2013-02-06 20:32:00,35.0,33.0,30.11,SSE,150,7.0,11.0,91,0.00,,,0.00,,2013-02-07 02:32:00,
2013-02-06 20:41:00,35.0,33.0,30.11,SSE,150,7.0,11.0,91,0.00,,,0.00,,2013-02-07 02:41:00,
2013-02-06 20:51:00,35.0,33.0,30.11,SSE,150,7.0,11.0,91,0.00,,,0.00,,2013-02-07 02:51:00,
2013-02-06 21:02:00,35.0,33.0,30.11,SSE,155,6.0,10.0,92,0.00,,,0.00,,2013-02-07 03:02:00,
2013-02-06 21:11:00,35.0,33.0,30.11,SSE,155,6.0,10.0,92,0.00,,,0.00,,2013-02-07 03:11:00,
2013-02-06 21:21:00,35.0,33.0,30.11,SSE,160,6.0,10.0,92,0.00,,,0.00,,2013-02-07 03:21:00,
2013-02-06 21:31:00,35.0,33.0,30.11,SSE,157,4.0,8.0,92,0.00,,,0.00,,2013-02-07 03:31:00,
2013-02-06 21:41:00,35.0,33.0,30.11,SSE,157,4.0,8.0,92,0.00,,,0.00,,2013-02-07 03:41:00,
2013-02-06 21:51:00,35.0,33.0,30.11,SSE,165,5.0,8.0,92,0.00,,,0.00,,2013-02-07 03:51:00,
2013-02-06 22:01:00,35.0,33.0,30.11,SSE,168,5.0,9.0,91,0.00,,,0.00,,2013-02-07 04:01:00,
2013-02-06 22:11:00,35.0,33.0,30.11,SSE,168,5.0,9.0,91,0.00,,,0.00,,2013-02-07 04:11:00,
2013-02-06 22:22:00,35.0,33.0,30.11,SE,144,5.0,10.0,91,0.00,,,0.00,,2013-02-07 04:22:00,
2013-02-06 22:32:00,34.0,32.0,30.10,SE,142,7.0,9.0,92,0.00,,,0.00,,2013-02-07 04:32:00,
2013-02-06 22:41:00,34.0,32.0,30.10,SE,142,7.0,9.0,92,0.00,,,0.00,,2013-02-07 04:41:00,
2013-02-06 23:02:00,34.0,32.0,30.10,SSE,147,7.0,10.0,92,0.00,,,0.00,,2013-02-07 05:02:00,
2013-02-06 23:11:00,34.0,32.0,30.10,SSE,147,7.0,10.0,92,0.00,,,0.00,,2013-02-07 05:11:00,
2013-02-06 23:21:00,34.0,32.0,30.09,SSE,167,7.0,12.0,91,0.00,,,0.00,,2013-02-07 05:21:00,
2013-02-06 23:32:00,34.0,32.0,30.09,SSE,163,7.0,11.0,91,0.00,,,0.00,,2013-02-07 05:32:00,
2013-02-06 23:42:00,34.0,32.0,30.09,SSE,163,7.0,11.0,91,0.00,,,0.00,,2013-02-07 05:42:00,
2013-02-06 23:52:00,34.0,32.0,30.09,South,178,8.0,12.0,91,0.00,,,0.00,,2013-02-07 05:52:00,